This is the latest recevied weather packets stored in our database for station/object APPOWX. If no packets are shown the sender has not sent any weather packets the latest 10 day(s).
| Time | Temp. | Humidity | Pressure | Rain* | Wind** | Luminosity | Snow |
|---|---|---|---|---|---|---|---|
| 1778355854 | 22.22° C | 52% | 1011.4 hPa | 0 mm | - | - | - |
| 1778355794 | 22.22° C | 53% | 1011.4 hPa | 0 mm | - | - | - |
| 1778355733 | 22.22° C | 57% | 1011.5 hPa | 0 mm | - | - | - |
| 1778355674 | 21.67° C | 56% | 1011.5 hPa | 0 mm | - | - | - |
| 1778355614 | 21.67° C | 58% | 1011.5 hPa | 0 mm | - | - | - |
| 1778355553 | 21.11° C | 56% | 1011.5 hPa | 0 mm | - | - | - |
| 1778355494 | 21.11° C | 58% | 1011.8 hPa | 0 mm | - | - | - |
| 1778355433 | 21.11° C | 56% | 1011.5 hPa | 0 mm | - | - | - |
| 1778355373 | 21.67° C | 55% | 1011.5 hPa | 0 mm | - | - | - |
| 1778355314 | 21.67° C | 57% | 1011.6 hPa | 0 mm | - | - | - |
| 1778355253 | 21.11° C | 56% | 1011.6 hPa | 0 mm | - | - | - |
| 1778355193 | 21.11° C | 56% | 1011.6 hPa | 0 mm | - | - | - |
| 1778355133 | 21.11° C | 57% | 1011.7 hPa | 0 mm | - | - | - |
| 1778355073 | 21.11° C | 56% | 1011.6 hPa | 0 mm | - | - | - |
| 1778355012 | 21.67° C | 57% | 1011.7 hPa | 0 mm | - | - | - |
| 1778354953 | 21.67° C | 56% | 1011.8 hPa | 0 mm | - | - | - |
| 1778354893 | 21.67° C | 57% | 1011.8 hPa | 0 mm | - | - | - |
| 1778354833 | 21.67° C | 56% | 1011.7 hPa | 0 mm | - | - | - |
| 1778354772 | 21.67° C | 56% | 1011.7 hPa | 0 mm | - | - | - |
| 1778354712 | 21.67° C | 55% | 1011.8 hPa | 0 mm | - | - | - |
| 1778354652 | 21.67° C | 57% | 1011.6 hPa | 0 mm | - | - | - |
| 1778354592 | 21.67° C | 57% | 1011.6 hPa | 0 mm | - | - | - |
| 1778354532 | 21.67° C | 57% | 1011.7 hPa | 0 mm | - | - | - |
| 1778354472 | 21.67° C | 55% | 1011.7 hPa | 0 mm | - | - | - |
| 1778354411 | 21.67° C | 58% | 1011.7 hPa | 0 mm | - | - | - |
* Rain latest hour (hover to see other rain measurements)
** Current wind speed in m/s (hover to see current wind gust speed)